Regional Weather Roundup
Issued by NWS Goodland, KS

Home | Current Version | Previous Version | Graphics & Text | Print | Product List | Glossary On
Versions: 1 2 3 4 5 6 7 8 9 10 11 12 13 14 15 16 17 18 19 20 21 22 23 24 25 26 27 28 29 30 31 32 33 34 35 36 37 38 39 40 41 42 43 44 45 46 47 48 49 50
000
ASUS43 KGLD 181059
RWRGLD

GOODLAND FORECAST AREA HOURLY WEATHER ROUNDUP
NATIONAL WEATHER SERVICE GOODLAND KS
400 AM MST SUN FEB 18 2018

...OFFICIAL OBSERVATIONS...

CITY           SKY/WX    TMP DP  RH WIND       PRES   REMARKS
GOODLAND KS    CLOUDY    36  20  52 S16       29.67F
HILL CITY KS   CLOUDY    42  19  39 S15G26    29.80F
IMPERIAL NEB   CLEAR     36  19  50 S12       29.64F
MCCOOK NEB     MOCLDY    39  23  52 S12       29.69F
AKRON CO       CLEAR     43  16  33 SW17      29.60F
BURLINGTON CO  CLOUDY    37  20  50 S10       29.67F
LIMON CO       MOCLDY    29  13  51 N6        29.69F
$$

...UNOFFICIAL OBSERVATIONS...

CITY           SKY/WX    TMP DP  RH WIND       PRES   REMARKS
LENORA KS        N/A     40  32  73 S17         N/A
NORTON KS      CLEAR     41  12  30 S18G25    29.73
SHARON SPRINGS   N/A     39  25  58 S20G28      N/A
TRENTON NEB      N/A     33  32  96 SW6         N/A
KIT CARSON CO    N/A     30  16  56 CALM        N/A
$$




USA.gov is the U.S. government's official web portal to all federal, state and local government web resources and services.